Terminal Aerodrome Forecast
Issued by NWS Bismarck, ND

Home | Current Version | Previous Version | Text Only | Print | Product List | Glossary Off
Versions: 1 2 3 4 5 6 7 8 9 10 11 12 13 14 15 16

000
FTUS43 KBIS 251200 AAA
TAFBIS
TAF AMD
KBIS 251256Z 2513/2612 06011KT 6SM -SN SCT014 OVC035
      TEMPO 2513/2515 02011KT 2SM -SN BR SCT008 BKN015
     FM251600 01014KT P6SM -SHSN SCT012 OVC035
     FM251900 36011KT P6SM SCT030 BKN100
     FM252100 35011KT P6SM FEW035 SCT120
     FM260000 34008KT P6SM SKC=

USA.gov is the U.S. government's official web portal to all federal, state and local government web resources and services.